This demonstration page uses our WeatherBlox Daily Observations layout. Learn more.

Left ArrowRight Arrow

44.8408, -93.29828

Hourly Observations for September 1, 2021

Temp ( °F °C ) Dew Point ( °F °C ) Humidity (%) Winds ( mph kmh ) Pressure ( in mb ) Visibility ( mi km ) Precip ( " mm )
12:53 am 00:53 Clear 67 19.4 57 13.9 71 71 E 7 11 29.95 1014 10 16 0.00 0.00
1:53 am 01:53 Clear 65 18.3 56 13.3 73 73 ENE 7 11 29.95 1014 10 16 0.00 0.00
2:53 am 02:53 Partly Cloudy 64 17.8 56 13.3 75 75 E 6 9 29.96 1015 10 16 0.00 0.00
3:53 am 03:53 Mostly Cloudy 63 17.2 56 13.3 78 78 E 6 9 29.97 1015 10 16 0.00 0.00
4:53 am 04:53 Mostly Clear 62 16.7 56 13.3 80 80 E 7 11 29.98 1015 10 16 0.00 0.00
5:53 am 05:53 Mostly Clear 62 16.7 57 13.9 84 84 E 7 11 29.98 1015 10 16 0.00 0.00
6:53 am 06:53 Mostly Sunny 61 16.1 58 14.4 90 90 ESE 6 9 30.00 1016 10 16 0.00 0.00
7:53 am 07:53 Mostly Sunny 63 17.2 58 14.4 84 84 ESE 6 9 30.02 1017 10 16 0.00 0.00
8:53 am 08:53 Mostly Sunny 66 18.9 60 15.6 81 81 SE 5 7 30.03 1017 10 16 0.00 0.00
9:53 am 09:53 Mostly Sunny 70 21.1 58 14.4 66 66 SE 9 15 30.03 1017 10 16 0.00 0.00
10:53 am 10:53 Mostly Sunny 72 22.2 58 14.4 61 61 SSE 7 11 30.04 1017 10 16 0.00 0.00
11:53 am 11:53 Mostly Sunny 74 23.3 58 14.4 57 57 S 7 11 30.05 1018 10 16 0.00 0.00
12:53 pm 12:53 Mostly Sunny 76 24.4 57 13.9 52 52 SE 10 17 30.04 1017 10 16 0.00 0.00
1:53 pm 13:53 Mostly Sunny 76 24.4 55 12.8 48 48 SE 9 15 30.03 1017 10 16 0.00 0.00
2:53 pm 14:53 Partly Cloudy 77 25 55 12.8 47 47 SE 5 7 30.02 1017 10 16 0.00 0.00
3:53 pm 15:53 Partly Cloudy 78 25.6 56 13.3 47 47 ESE 10 17 30.01 1016 10 16 0.00 0.00
4:53 pm 16:53 Partly Cloudy 77 25 55 12.8 47 47 ESE 13 20 30.01 1016 10 16 0.00 0.00
5:53 pm 17:53 Partly Cloudy 76 24.4 55 12.8 48 48 SE 12 19 30.00 1016 10 16 0.00 0.00
6:53 pm 18:53 Partly Cloudy 75 23.9 55 12.8 50 50 SE 7 11 30.01 1016 10 16 0.00 0.00
7:53 pm 19:53 Partly Cloudy 72 22.2 56 13.3 57 57 SSE 7 11 30.02 1017 10 16 0.00 0.00
8:53 pm 20:53 Partly Cloudy 70 21.1 57 13.9 64 64 SE 6 9 30.04 1017 10 16 0.00 0.00
9:53 pm 21:53 Partly Cloudy 69 20.6 57 13.9 66 66 SE 7 11 30.04 1017 10 16 0.00 0.00
10:53 pm 22:53 Partly Cloudy 67 19.4 57 13.9 71 71 SSE 7 11 30.04 1017 10 16 0.00 0.00
11:53 pm 23:53 Partly Cloudy 66 18.9 57 13.9 73 73 SE 8 13 30.04 1017 10 16 0.00 0.00

Powered by AerisWeather